Weather History for Portland Troutdale, OR

Change the Weather History Date:

Monday, February 10, 2014

  Actual Average Record
Temperature  
Mean Temperature 39 °F 42 °F  
Max Temperature 46 °F 49 °F 62 °F (1971)
Min Temperature 31 °F 35 °F 23 °F (1989)
Degree Days  
Heating Degree Days 26 23  
Month to date heating degree days 330 232  
Cooling Degree Days 0 0  
Month to date cooling degree days 0 0  
Moisture  
Dew Point 29 °F    
Average Humidity 81    
Maximum Humidity 89    
Minimum Humidity 72    
Precipitation  
Precipitation 0.07 in 0.19 in 2.21 in (1961)
Month to date precipitation 0.09 1.90  
Year to date precipitation 2.95 8.08  
Sea Level Pressure  
Sea Level Pressure 30.17 in    
Wind  
Wind Speed 13 mph (East)    
Max Wind Speed 30 mph    
Max Gust Speed 41 mph    
Visibility 8 miles    
Events Rain    
T = Trace of Precipitation, MM = Missing Value Source: NWS Daily Summary

Daily Weather History Graph

Daily Weather History Graph

Search for Another Location

Airport:

Trip Planner

Search our weather history database for the weather conditions in past years. The results will help you decide how hot, cold, wet, or windy it might be!

Date:

Astronomy

Feb. 10, 2014 Rise Set
Actual Time 7:18 AM PST 5:29 PM PST
Civil Twilight 6:47 AM PST 6:00 PM PST
Nautical Twilight 6:13 AM PST 6:35 PM PST
Astronomical Twilight 5:38 AM PST 7:09 PM PST
Moon 1:58 PM PST (2/10) 4:21 AM PST (2/10)
Length of Visible Light 11h 12m
Length of Day
10h 10m
Waxing Gibbous, 85% of the Moon is Illuminated
Feb 10
Waxing Gibbous
Feb 14
Full
Feb 22
Last Quarter
Mar 1
New
Mar 8
First Quarter

Hourly Weather History & Observations

Time (PST) Temp. Windchill Dew Point Humidity Pressure Visibility Wind Dir Wind Speed Gust Speed Precip Events Conditions
12:53 AM 32.0 °F 21.2 °F 24.1 °F 73% 30.12 in 10.0 mi East 16.1 mph - N/A   Mostly Cloudy
1:53 AM 32.0 °F 19.2 °F 24.1 °F 73% 30.12 in 10.0 mi East 23.0 mph 31.1 mph N/A   Overcast
2:53 AM 32.0 °F 19.5 °F 24.1 °F 73% 30.12 in 10.0 mi East 21.9 mph 31.1 mph N/A   Overcast
3:53 AM 32.0 °F 20.1 °F 24.1 °F 73% 30.14 in 10.0 mi East 19.6 mph 28.8 mph N/A   Overcast
4:53 AM 32.0 °F 20.5 °F 24.1 °F 73% 30.14 in 10.0 mi East 18.4 mph - N/A   Overcast
5:53 AM 32.0 °F 19.2 °F 24.1 °F 73% 30.15 in 10.0 mi East 23.0 mph 32.2 mph N/A   Overcast
6:53 AM 32.0 °F 19.5 °F 25.0 °F 75% 30.14 in 10.0 mi East 21.9 mph 33.4 mph 0.00 in   Overcast
7:32 AM 33.1 °F 20.6 °F 26.1 °F 75% 30.15 in 10.0 mi East 23.0 mph 32.2 mph 0.00 in Rain Light Freezing Rain
7:53 AM 33.1 °F 21.5 °F 26.1 °F 75% 30.15 in 10.0 mi East 19.6 mph 28.8 mph 0.00 in Rain Light Freezing Rain
8:03 AM 33.1 °F 21.2 °F 26.1 °F 75% 30.16 in 10.0 mi East 20.7 mph 28.8 mph 0.00 in   Overcast
8:12 AM 33.1 °F 21.9 °F 26.1 °F 75% 30.16 in 8.0 mi East 18.4 mph 26.5 mph 0.00 in Rain Light Freezing Rain
8:23 AM 32.0 °F 20.8 °F 26.1 °F 79% 30.16 in 10.0 mi East 17.3 mph 25.3 mph 0.00 in Rain Light Freezing Rain
8:53 AM 32.0 °F 20.5 °F 27.0 °F 82% 30.18 in 6.0 mi East 18.4 mph 26.5 mph 0.01 in Rain Light Freezing Rain
9:09 AM 32.0 °F 20.8 °F 28.0 °F 85% 30.18 in 2.5 mi East 17.3 mph 25.3 mph 0.02 in Rain Light Freezing Rain
9:11 AM 32.0 °F 21.2 °F 28.0 °F 85% 30.18 in 3.0 mi East 16.1 mph 23.0 mph 0.02 in Rain Light Freezing Rain
9:27 AM 33.1 °F 21.5 °F 28.0 °F 82% 30.18 in 5.0 mi East 19.6 mph 26.5 mph 0.02 in   Overcast
9:53 AM 33.1 °F 21.9 °F 28.9 °F 85% 30.19 in 4.0 mi East 18.4 mph - 0.02 in   Overcast
10:43 AM 33.1 °F 23.0 °F 28.9 °F 85% 30.19 in 9.0 mi East 15.0 mph 23.0 mph N/A   Overcast
10:53 AM 33.1 °F 22.6 °F 28.9 °F 85% 30.19 in 4.0 mi East 16.1 mph 24.2 mph N/A   Overcast
11:10 AM 33.1 °F 22.6 °F 30.0 °F 89% 30.19 in 2.5 mi East 16.1 mph - 0.00 in Rain Light Rain
11:29 AM 33.1 °F 23.4 °F 30.0 °F 89% 30.20 in 3.0 mi East 13.8 mph 21.9 mph 0.00 in Rain Light Rain
11:36 AM 33.1 °F 21.9 °F 30.0 °F 89% 30.19 in 2.0 mi East 18.4 mph 24.2 mph 0.00 in Rain Light Rain
11:53 AM 33.1 °F 23.0 °F 30.0 °F 89% 30.20 in 2.0 mi East 15.0 mph - 0.00 in Rain Light Rain
12:17 PM 33.1 °F 23.4 °F 30.0 °F 89% 30.19 in 4.0 mi East 13.8 mph 27.6 mph 0.00 in   Overcast
12:53 PM 33.1 °F 23.4 °F 30.0 °F 89% 30.19 in 8.0 mi East 13.8 mph 25.3 mph 0.00 in   Overcast
1:53 PM 34.0 °F 25.5 °F 30.9 °F 89% 30.19 in 10.0 mi East 11.5 mph - N/A   Overcast
2:43 PM 34.0 °F 26.6 °F 30.9 °F 89% 30.19 in 10.0 mi East 9.2 mph - N/A   Overcast
2:53 PM 34.0 °F 28.0 °F 30.9 °F 89% 30.20 in 10.0 mi East 6.9 mph - N/A   Overcast
3:53 PM 34.0 °F 26.6 °F 30.9 °F 89% 30.19 in 10.0 mi East 9.2 mph - N/A   Overcast
4:16 PM 34.0 °F 28.0 °F 30.9 °F 89% 30.18 in 10.0 mi East 6.9 mph - N/A   Mostly Cloudy
4:33 PM 34.0 °F 28.0 °F 30.9 °F 89% 30.17 in 10.0 mi ENE 6.9 mph - N/A   Scattered Clouds
4:53 PM 34.0 °F 28.8 °F 30.9 °F 89% 30.17 in 10.0 mi East 5.8 mph - N/A   Mostly Cloudy
5:17 PM 34.0 °F 29.8 °F 30.9 °F 89% 30.17 in 10.0 mi East 4.6 mph - N/A   Overcast
5:53 PM 34.0 °F 28.0 °F 30.9 °F 89% 30.17 in 10.0 mi East 6.9 mph - N/A   Overcast
6:12 PM 34.0 °F 28.8 °F 30.9 °F 89% 30.17 in 10.0 mi East 5.8 mph - N/A   Overcast
6:53 PM 35.1 °F 32.2 °F 32.0 °F 89% 30.18 in 8.0 mi ESE 3.5 mph - 0.00 in Rain Light Rain
7:01 PM 34.0 °F 29.8 °F 30.9 °F 89% 30.17 in 6.0 mi ESE 4.6 mph - 0.00 in Rain Light Rain
7:24 PM 34.0 °F 29.8 °F 32.0 °F 92% 30.16 in 10.0 mi East 4.6 mph - 0.00 in   Overcast
7:53 PM 35.1 °F 32.2 °F 32.0 °F 89% 30.16 in 10.0 mi NE 3.5 mph - 0.00 in   Overcast
8:53 PM 35.1 °F 32.2 °F 33.1 °F 92% 30.15 in 7.0 mi ENE 3.5 mph - 0.04 in Rain Light Rain
9:53 PM 35.1 °F - 33.1 °F 92% 30.14 in 6.0 mi Calm Calm - 0.00 in   Overcast
10:53 PM 35.1 °F - 34.0 °F 96% 30.15 in 5.0 mi Calm Calm - 0.00 in Rain Light Rain
11:53 PM 46.0 °F 43.1 °F 43.0 °F 89% 30.15 in 9.0 mi WSW 5.8 mph - 0.00 in Rain Light Rain